| time (UTC) | temp F | wind direction | speed MPH | gust MPH | rain 1hr in | rain 24hr in | rain mn in | humidity % | barometer mb |
| 20260507065556 | 56 | 0 | 0.0 | 0.0 | 0.00 | 0.05 | 0.00 | 89 | 1016.8 |
| 20260507065055 | 56 | 0 | 0.0 | 0.0 | 0.00 | 0.05 | 0.00 | 89 | 1016.8 |
| 20260507064618 | 56 | 0 | 0.0 | 1.0 | 0.00 | 0.05 | 0.00 | 89 | 1016.8 |
| 20260507064055 | 56 | 0 | 0.0 | 1.0 | 0.00 | 0.05 | 0.00 | 89 | 1016.8 |
| 20260507063556 | 56 | 0 | 0.0 | 1.0 | 0.00 | 0.05 | 0.00 | 89 | 1016.7 |
| 20260507063056 | 56 | 0 | 0.0 | 2.0 | 0.00 | 0.05 | 0.00 | 89 | 1016.4 |
| 20260507062553 | 56 | 0 | 0.0 | 2.0 | 0.00 | 0.05 | 0.00 | 89 | 1016.5 |
| 20260507062054 | 56 | 0 | 0.0 | 2.0 | 0.00 | 0.05 | 0.00 | 90 | 1016.3 |
| 20260507061605 | 56 | 0 | 0.0 | 2.0 | 0.00 | 0.05 | 0.00 | 89 | 1016.5 |
| 20260507061053 | 56 | 0 | 0.0 | 1.0 | 0.00 | 0.05 | 0.00 | 90 | 1016.5 |
| 20260507060556 | 56 | 298 | 0.0 | 1.0 | 0.00 | 0.05 | 0.00 | 90 | 1016.4 |
| 20260507060059 | 56 | 0 | 0.0 | 1.0 | 0.00 | 0.05 | 0.00 | 90 | 1016.4 |
| 20260507055556 | 56 | 0 | 0.0 | 1.0 | 0.00 | 0.05 | 0.00 | 90 | 1016.4 |
| 20260507055054 | 56 | 0 | 0.0 | 1.0 | 0.00 | 0.05 | 0.00 | 90 | 1016.4 |
| 20260507054610 | 56 | 0 | 0.0 | 3.0 | 0.00 | 0.05 | 0.00 | 90 | 1016.5 |
| 20260507054055 | 56 | 0 | 0.0 | 3.0 | 0.00 | 0.05 | 0.00 | 90 | 1016.4 |
| 20260507053556 | 56 | 300 | 0.0 | 3.0 | 0.00 | 0.05 | 0.00 | 90 | 1016.4 |
| 20260507053054 | 56 | 0 | 0.0 | 2.0 | 0.00 | 0.05 | 0.00 | 90 | 1016.5 |
| 20260507052555 | 56 | 0 | 0.0 | 1.0 | 0.00 | 0.05 | 0.00 | 90 | 1016.5 |
| 20260507052055 | 56 | 0 | 0.0 | 1.0 | 0.00 | 0.05 | 0.00 | 90 | 1016.6 |
| 20260507051555 | 56 | 0 | 0.0 | 1.0 | 0.00 | 0.05 | 0.00 | 90 | 1016.5 |
| 20260507051052 | 56 | 0 | 0.0 | 2.0 | 0.00 | 0.05 | 0.00 | 90 | 1016.5 |
| 20260507050553 | 56 | 0 | 0.0 | 2.0 | 0.00 | 0.05 | 0.00 | 90 | 1016.6 |
| 20260507050055 | 56 | 0 | 0.0 | 2.0 | 0.00 | 0.05 | 0.00 | 91 | 1016.3 |
| 20260507045556 | 56 | 0 | 0.0 | 1.0 | 0.00 | 0.05 | 0.05 | 91 | 1016.3 |
| 20260507045053 | 56 | 0 | 0.0 | 1.0 | 0.00 | 0.05 | 0.05 | 91 | 1016.4 |
| 20260507044555 | 56 | 0 | 0.0 | 1.0 | 0.00 | 0.05 | 0.05 | 91 | 1016.3 |
| 20260507044055 | 57 | 0 | 0.0 | 1.0 | 0.00 | 0.05 | 0.05 | 90 | 1016.2 |
| 20260507043556 | 57 | 0 | 0.0 | 1.0 | 0.00 | 0.05 | 0.05 | 90 | 1016.3 |
| 20260507043102 | 57 | 0 | 0.0 | 1.0 | 0.00 | 0.05 | 0.05 | 91 | 1016.3 |
| 20260507042556 | 57 | 0 | 0.0 | 1.0 | 0.00 | 0.05 | 0.05 | 91 | 1016.5 |
| 20260507042055 | 57 | 0 | 0.0 | 0.0 | 0.00 | 0.05 | 0.05 | 90 | 1016.5 |
| 20260507041605 | 57 | 0 | 0.0 | 1.0 | 0.00 | 0.05 | 0.05 | 91 | 1016.5 |
| 20260507041055 | 57 | 0 | 0.0 | 1.0 | 0.00 | 0.05 | 0.05 | 91 | 1016.5 |
| 20260507040555 | 57 | 0 | 0.0 | 1.0 | 0.00 | 0.05 | 0.05 | 91 | 1016.5 |
| 20260507040059 | 57 | 0 | 0.0 | 1.0 | 0.00 | 0.05 | 0.05 | 91 | 1016.6 |
| 20260507035555 | 57 | 0 | 0.0 | 1.0 | 0.00 | 0.05 | 0.05 | 91 | 1016.5 |
| 20260507035055 | 57 | 0 | 0.0 | 1.0 | 0.00 | 0.05 | 0.05 | 91 | 1016.5 |
| 20260507034557 | 57 | 0 | 0.0 | 1.0 | 0.00 | 0.05 | 0.05 | 91 | 1016.5 |
| 20260507034056 | 57 | 0 | 0.0 | 1.0 | 0.00 | 0.05 | 0.05 | 91 | 1016.6 |
| 20260507033557 | 57 | 0 | 0.0 | 1.0 | 0.00 | 0.05 | 0.05 | 91 | 1016.3 |
| 20260507033053 | 57 | 0 | 0.0 | 0.0 | 0.00 | 0.05 | 0.05 | 91 | 1016.4 |
| 20260507032554 | 58 | 0 | 0.0 | 0.0 | 0.00 | 0.05 | 0.05 | 91 | 1016.5 |
| 20260507032054 | 58 | 0 | 0.0 | 0.0 | 0.00 | 0.05 | 0.05 | 91 | 1016.4 |
| 20260507031558 | 58 | 0 | 0.0 | 0.0 | 0.00 | 0.05 | 0.05 | 90 | 1016.6 |
| 20260507031059 | 58 | 0 | 0.0 | 0.0 | 0.00 | 0.05 | 0.05 | 90 | 1016.4 |
| 20260507030555 | 58 | 0 | 0.0 | 0.0 | 0.00 | 0.05 | 0.05 | 90 | 1016.4 |
| 20260507025555 | 58 | 0 | 0.0 | 2.0 | 0.00 | 0.05 | 0.05 | 90 | 1016.3 |
| 20260507025055 | 58 | 0 | 0.0 | 2.0 | 0.00 | 0.05 | 0.05 | 89 | 1016.2 |
| 20260507024553 | 59 | 0 | 0.0 | 1.0 | 0.00 | 0.05 | 0.05 | 89 | 1016.2 |
| 20260507024055 | 59 | 0 | 0.0 | 1.0 | 0.00 | 0.05 | 0.05 | 89 | 1016.0 |
| 20260507023556 | 59 | 0 | 0.0 | 1.0 | 0.00 | 0.05 | 0.05 | 89 | 1016.0 |
| 20260507023111 | 59 | 0 | 0.0 | 1.0 | 0.00 | 0.05 | 0.05 | 89 | 1015.7 |
| 20260507022556 | 59 | 0 | 0.0 | 1.0 | 0.00 | 0.05 | 0.05 | 89 | 1015.9 |
| 20260507022055 | 59 | 0 | 0.0 | 1.0 | 0.00 | 0.05 | 0.05 | 88 | 1015.7 |
| 20260507021557 | 59 | 0 | 0.0 | 1.0 | 0.00 | 0.05 | 0.05 | 88 | 1015.6 |
| 20260507021055 | 59 | 0 | 0.0 | 1.0 | 0.00 | 0.05 | 0.05 | 88 | 1015.6 |
| 20260507020555 | 59 | 0 | 0.0 | 1.0 | 0.00 | 0.05 | 0.05 | 88 | 1015.4 |
| 20260507020054 | 59 | 0 | 0.0 | 1.0 | 0.00 | 0.05 | 0.05 | 88 | 1015.3 |
| 20260507015554 | 60 | 0 | 0.0 | 1.0 | 0.00 | 0.05 | 0.05 | 87 | 1015.2 |
| 20260507015055 | 60 | 0 | 0.0 | 2.0 | 0.00 | 0.05 | 0.05 | 87 | 1015.2 |
| 20260507014606 | 60 | 261 | 0.0 | 2.0 | 0.00 | 0.05 | 0.05 | 87 | 1015.0 |
| 20260507014056 | 60 | 0 | 0.0 | 2.0 | 0.00 | 0.05 | 0.05 | 87 | 1015.1 |
| 20260507013554 | 60 | 226 | 0.0 | 2.0 | 0.00 | 0.05 | 0.05 | 87 | 1014.8 |
| 20260507013112 | 60 | 0 | 0.0 | 1.0 | 0.00 | 0.05 | 0.05 | 87 | 1014.6 |
| 20260507012554 | 60 | 0 | 0.0 | 2.0 | 0.00 | 0.05 | 0.05 | 87 | 1014.6 |
| 20260507012055 | 60 | 0 | 0.0 | 2.0 | 0.00 | 0.05 | 0.05 | 86 | 1014.5 |
| 20260507011554 | 61 | 0 | 0.0 | 3.0 | 0.00 | 0.05 | 0.05 | 86 | 1014.4 |
| 20260507011055 | 61 | 211 | 0.0 | 3.0 | 0.00 | 0.05 | 0.05 | 86 | 1014.3 |
| 20260507010555 | 61 | 0 | 0.0 | 2.0 | 0.00 | 0.05 | 0.05 | 85 | 1014.2 |
| 20260507010056 | 61 | 0 | 0.0 | 2.0 | 0.00 | 0.05 | 0.05 | 85 | 1014.1 |
| 20260507005555 | 61 | 0 | 0.0 | 2.0 | 0.00 | 0.05 | 0.05 | 85 | 1014.2 |
| 20260507005055 | 61 | 209 | 0.0 | 2.0 | 0.00 | 0.05 | 0.05 | 84 | 1013.9 |
| 20260507004557 | 61 | 0 | 0.0 | 2.0 | 0.00 | 0.05 | 0.05 | 84 | 1014.0 |
| 20260507004053 | 61 | 0 | 0.0 | 2.0 | 0.00 | 0.05 | 0.05 | 83 | 1013.9 |
| 20260507003552 | 61 | 0 | 0.0 | 2.0 | 0.00 | 0.05 | 0.05 | 83 | 1013.9 |
| 20260507003056 | 62 | 0 | 0.0 | 2.0 | 0.00 | 0.05 | 0.05 | 83 | 1014.0 |
| 20260507002552 | 62 | 0 | 0.0 | 2.0 | 0.00 | 0.05 | 0.05 | 83 | 1014.2 |
| 20260507002052 | 62 | 0 | 0.0 | 2.0 | 0.00 | 0.05 | 0.05 | 83 | 1014.2 |
| 20260507001617 | 62 | 180 | 0.0 | 2.0 | 0.00 | 0.05 | 0.05 | 83 | 1014.0 |
| 20260507001055 | 62 | 0 | 0.0 | 3.0 | 0.00 | 0.05 | 0.05 | 83 | 1014.0 |
| 20260507000552 | 62 | 194 | 0.0 | 3.0 | 0.00 | 0.05 | 0.05 | 83 | 1014.0 |
| 20260507000059 | 62 | 185 | 0.0 | 2.0 | 0.00 | 0.05 | 0.05 | 84 | 1014.0 |
| 20260506235552 | 62 | 0 | 0.0 | 2.0 | 0.00 | 0.05 | 0.05 | 84 | 1013.9 |
| 20260506235056 | 62 | 0 | 0.0 | 2.0 | 0.00 | 0.05 | 0.05 | 83 | 1013.8 |
| 20260506234554 | 62 | 0 | 0.0 | 1.0 | 0.00 | 0.05 | 0.05 | 83 | 1013.9 |
| 20260506234057 | 62 | 0 | 0.0 | 2.0 | 0.00 | 0.05 | 0.05 | 85 | 1014.0 |
| 20260506233553 | 62 | 0 | 0.0 | 2.0 | 0.00 | 0.05 | 0.05 | 85 | 1013.8 |
| 20260506233102 | 62 | 192 | 0.0 | 1.0 | 0.00 | 0.05 | 0.05 | 84 | 1013.7 |
| 20260506232555 | 62 | 0 | 0.0 | 1.0 | 0.00 | 0.05 | 0.05 | 84 | 1013.7 |
| 20260506232052 | 62 | 0 | 0.0 | 2.0 | 0.00 | 0.05 | 0.05 | 85 | 1013.6 |
| 20260506231555 | 62 | 0 | 0.0 | 2.0 | 0.00 | 0.05 | 0.05 | 85 | 1013.5 |
| 20260506231053 | 61 | 0 | 0.0 | 2.0 | 0.00 | 0.05 | 0.05 | 85 | 1013.4 |
| 20260506230552 | 61 | 259 | 0.0 | 2.0 | 0.00 | 0.05 | 0.05 | 85 | 1013.5 |
| 20260506230056 | 62 | 0 | 0.0 | 2.0 | 0.02 | 0.05 | 0.05 | 85 | 1013.3 |
| 20260506225557 | 61 | 251 | 0.0 | 2.0 | 0.02 | 0.05 | 0.05 | 85 | 1013.3 |
| 20260506225055 | 61 | 0 | 0.0 | 2.0 | 0.02 | 0.05 | 0.05 | 86 | 1013.3 |
| 20260506224554 | 60 | 0 | 0.0 | 2.0 | 0.02 | 0.05 | 0.05 | 86 | 1013.3 |
| 20260506224051 | 61 | 0 | 0.0 | 2.0 | 0.02 | 0.05 | 0.05 | 88 | 1013.5 |
| 20260506223555 | 60 | 0 | 0.0 | 2.0 | 0.02 | 0.05 | 0.05 | 87 | 1013.4 |
| 20260506223111 | 60 | 0 | 0.0 | 2.0 | 0.02 | 0.05 | 0.05 | 88 | 1013.4 |
| 20260506222555 | 61 | 0 | 0.0 | 2.0 | 0.02 | 0.05 | 0.05 | 89 | 1013.0 |
| 20260506222059 | 60 | 0 | 0.0 | 2.0 | 0.02 | 0.05 | 0.05 | 89 | 1013.3 |
| 20260506221602 | 60 | 0 | 0.0 | 2.0 | 0.02 | 0.05 | 0.05 | 88 | 1013.1 |
| 20260506221056 | 60 | 0 | 0.0 | 2.0 | 0.02 | 0.05 | 0.05 | 86 | 1013.3 |
| 20260506220553 | 61 | 46 | 0.0 | 2.0 | 0.02 | 0.05 | 0.05 | 83 | 1013.7 |
| 20260506220056 | 62 | 0 | 0.0 | 1.0 | 0.00 | 0.03 | 0.03 | 81 | 1013.6 |
| 20260506215552 | 62 | 0 | 0.0 | 1.0 | 0.00 | 0.03 | 0.03 | 80 | 1013.4 |
| 20260506215052 | 62 | 0 | 0.0 | 2.0 | 0.00 | 0.03 | 0.03 | 78 | 1013.5 |
| 20260506214604 | 62 | 0 | 0.0 | 2.0 | 0.00 | 0.03 | 0.03 | 77 | 1013.6 |
| 20260506214056 | 63 | 36 | 0.0 | 3.0 | 0.00 | 0.03 | 0.03 | 77 | 1013.5 |
| 20260506213555 | 63 | 0 | 0.0 | 3.0 | 0.00 | 0.03 | 0.03 | 77 | 1013.6 |
| 20260506213054 | 64 | 37 | 0.0 | 2.0 | 0.00 | 0.03 | 0.03 | 78 | 1013.4 |
| 20260506212555 | 64 | 0 | 0.0 | 2.0 | 0.00 | 0.03 | 0.03 | 76 | 1013.7 |
| 20260506212058 | 64 | 360 | 0.0 | 2.0 | 0.00 | 0.03 | 0.03 | 78 | 1013.5 |
| 20260506211556 | 63 | 288 | 0.0 | 3.0 | 0.00 | 0.03 | 0.03 | 79 | 1013.1 |
| 20260506211055 | 63 | 17 | 0.0 | 3.0 | 0.00 | 0.03 | 0.03 | 77 | 1013.5 |
| 20260506210555 | 63 | 0 | 0.0 | 2.0 | 0.00 | 0.03 | 0.03 | 77 | 1013.5 |
| 20260506205555 | 63 | 0 | 0.0 | 2.0 | 0.00 | 0.03 | 0.03 | 78 | 1013.3 |
| 20260506205054 | 63 | 19 | 0.0 | 2.0 | 0.00 | 0.03 | 0.03 | 77 | 1013.3 |
| 20260506204555 | 63 | 229 | 0.0 | 3.0 | 0.00 | 0.03 | 0.03 | 78 | 1013.6 |
| 20260506204053 | 63 | 218 | 0.0 | 3.0 | 0.00 | 0.03 | 0.03 | 77 | 1013.6 |
| 20260506203553 | 63 | 0 | 0.0 | 2.0 | 0.00 | 0.03 | 0.03 | 77 | 1013.7 |
| 20260506203100 | 63 | 0 | 0.0 | 2.0 | 0.00 | 0.03 | 0.03 | 78 | 1013.8 |
| 20260506202553 | 62 | 0 | 0.0 | 2.0 | 0.00 | 0.03 | 0.03 | 78 | 1013.9 |
| 20260506202054 | 62 | 0 | 0.0 | 3.0 | 0.00 | 0.03 | 0.03 | 79 | 1013.9 |
| 20260506201556 | 62 | 0 | 0.0 | 3.0 | 0.00 | 0.03 | 0.03 | 79 | 1014.1 |
| 20260506201054 | 62 | 11 | 0.0 | 2.0 | 0.00 | 0.03 | 0.03 | 78 | 1014.1 |
| 20260506200555 | 62 | 0 | 0.0 | 2.0 | 0.00 | 0.03 | 0.03 | 78 | 1013.9 |
| 20260506200152 | 62 | 0 | 0.0 | 3.0 | 0.00 | 0.03 | 0.03 | 78 | 1014.0 |
| 20260506195554 | 62 | 0 | 0.0 | 3.0 | 0.00 | 0.03 | 0.03 | 79 | 1014.2 |
| 20260506195054 | 62 | 0 | 0.0 | 3.0 | 0.00 | 0.03 | 0.03 | 80 | 1014.3 |
| 20260506194604 | 61 | 0 | 0.0 | 3.0 | 0.00 | 0.03 | 0.03 | 80 | 1014.3 |
| 20260506194054 | 60 | 0 | 0.0 | 3.0 | 0.00 | 0.03 | 0.03 | 82 | 1014.4 |
| 20260506193555 | 59 | 0 | 0.0 | 2.0 | 0.00 | 0.03 | 0.03 | 81 | 1014.7 |
| 20260506193052 | 60 | 0 | 0.0 | 2.0 | 0.00 | 0.03 | 0.03 | 80 | 1014.8 |
| 20260506192556 | 60 | 0 | 0.0 | 3.0 | 0.00 | 0.03 | 0.03 | 82 | 1014.7 |
| 20260506192056 | 60 | 76 | 0.0 | 3.0 | 0.00 | 0.03 | 0.03 | 84 | 1014.7 |
| 20260506191556 | 59 | 34 | 0.0 | 3.0 | 0.00 | 0.03 | 0.03 | 82 | 1014.9 |
| 20260506191055 | 59 | 0 | 0.0 | 2.0 | 0.00 | 0.03 | 0.03 | 83 | 1014.8 |
| 20260506190555 | 59 | 0 | 0.0 | 1.0 | 0.00 | 0.03 | 0.03 | 84 | 1014.8 |
| 20260506190055 | 58 | 0 | 0.0 | 1.0 | 0.00 | 0.03 | 0.03 | 84 | 1015.0 |
| 20260506185554 | 57 | 23 | 0.0 | 1.0 | 0.00 | 0.03 | 0.03 | 85 | 1015.1 |
| 20260506185055 | 57 | 0 | 0.0 | 2.0 | 0.00 | 0.03 | 0.03 | 84 | 1015.2 |
| 20260506184555 | 57 | 0 | 0.0 | 2.0 | 0.00 | 0.03 | 0.03 | 85 | 1015.1 |
| 20260506184054 | 56 | 0 | 0.0 | 1.0 | 0.00 | 0.03 | 0.03 | 85 | 1015.1 |
| 20260506183554 | 56 | 0 | 0.0 | 1.0 | 0.00 | 0.03 | 0.03 | 85 | 1015.5 |
| 20260506183055 | 56 | 0 | 0.0 | 2.0 | 0.00 | 0.03 | 0.03 | 85 | 1015.3 |
| 20260506182553 | 56 | 0 | 0.0 | 2.0 | 0.00 | 0.03 | 0.03 | 85 | 1015.2 |
| 20260506182058 | 56 | 0 | 0.0 | 3.0 | 0.00 | 0.03 | 0.03 | 86 | 1015.4 |
| 20260506181554 | 56 | 0 | 0.0 | 4.0 | 0.00 | 0.03 | 0.03 | 86 | 1015.4 |
| 20260506181054 | 56 | 0 | 0.0 | 4.0 | 0.00 | 0.03 | 0.03 | 86 | 1015.5 |
| 20260506180557 | 56 | 22 | 0.0 | 4.0 | 0.00 | 0.03 | 0.03 | 85 | 1015.1 |
| 20260506180105 | 56 | 0 | 0.0 | 4.0 | 0.00 | 0.03 | 0.03 | 86 | 1015.1 |
| 20260506175554 | 56 | 0 | 1.0 | 4.0 | 0.00 | 0.03 | 0.03 | 85 | 1015.0 |
| 20260506175057 | 56 | 0 | 0.0 | 2.0 | 0.00 | 0.03 | 0.03 | 85 | 1014.7 |
| 20260506174556 | 57 | 24 | 0.0 | 5.0 | 0.00 | 0.03 | 0.03 | 86 | 1014.2 |
| 20260506174055 | 56 | 0 | 0.0 | 5.0 | 0.00 | 0.03 | 0.03 | 86 | 1014.2 |
| 20260506173552 | 56 | 360 | 1.0 | 5.0 | 0.00 | 0.03 | 0.03 | 86 | 1014.0 |
| 20260506173111 | 56 | 21 | 0.0 | 2.0 | 0.00 | 0.03 | 0.03 | 88 | 1013.7 |
| 20260506172558 | 55 | 19 | 0.0 | 3.0 | 0.00 | 0.03 | 0.03 | 87 | 1014.0 |
| 20260506172055 | 55 | 317 | 0.0 | 3.0 | 0.00 | 0.03 | 0.03 | 87 | 1013.8 |
| 20260506171602 | 56 | 0 | 0.0 | 2.0 | 0.00 | 0.03 | 0.03 | 87 | 1013.8 |
| 20260506171055 | 56 | 0 | 0.0 | 2.0 | 0.00 | 0.03 | 0.03 | 87 | 1013.8 |
| 20260506170554 | 56 | 0 | 0.0 | 2.0 | 0.00 | 0.03 | 0.03 | 88 | 1014.2 |
| 20260506170052 | 56 | 44 | 0.0 | 2.0 | 0.00 | 0.03 | 0.03 | 87 | 1014.6 |
| 20260506165554 | 56 | 0 | 0.0 | 2.0 | 0.00 | 0.03 | 0.03 | 88 | 1014.8 |
| 20260506165057 | 55 | 0 | 0.0 | 2.0 | 0.00 | 0.03 | 0.03 | 88 | 1014.6 |
| 20260506164554 | 55 | 0 | 0.0 | 3.0 | 0.00 | 0.03 | 0.03 | 88 | 1014.3 |
| 20260506164056 | 55 | 0 | 0.0 | 3.0 | 0.00 | 0.03 | 0.03 | 89 | 1014.1 |
| 20260506163556 | 54 | 0 | 0.0 | 3.0 | 0.00 | 0.03 | 0.03 | 88 | 1014.6 |
| 20260506163106 | 54 | 0 | 0.0 | 3.0 | 0.00 | 0.03 | 0.03 | 88 | 1014.4 |
| 20260506162558 | 55 | 38 | 0.0 | 3.0 | 0.00 | 0.03 | 0.03 | 88 | 1014.7 |
| 20260506162056 | 55 | 0 | 0.0 | 3.0 | 0.00 | 0.03 | 0.03 | 89 | 1014.5 |
| 20260506161559 | 55 | 0 | 0.0 | 3.0 | 0.00 | 0.03 | 0.03 | 89 | 1014.9 |
| 20260506161055 | 55 | 344 | 0.0 | 3.0 | 0.00 | 0.03 | 0.03 | 89 | 1014.5 |
| 20260506160556 | 55 | 80 | 0.0 | 3.0 | 0.00 | 0.03 | 0.03 | 89 | 1014.3 |
| 20260506160107 | 55 | 0 | 0.0 | 3.0 | 0.00 | 0.03 | 0.03 | 89 | 1014.1 |
| 20260506155555 | 55 | 0 | 0.0 | 3.0 | 0.00 | 0.03 | 0.03 | 90 | 1014.6 |
| 20260506155055 | 55 | 0 | 0.0 | 3.0 | 0.00 | 0.03 | 0.03 | 90 | 1014.4 |
| 20260506154555 | 55 | 206 | 0.0 | 3.0 | 0.00 | 0.03 | 0.03 | 90 | 1014.0 |
| 20260506154055 | 55 | 0 | 0.0 | 4.0 | 0.00 | 0.03 | 0.03 | 90 | 1013.9 |
| 20260506153555 | 55 | 274 | 1.0 | 4.0 | 0.01 | 0.03 | 0.03 | 90 | 1013.6 |
| 20260506153055 | 55 | 333 | 0.0 | 3.0 | 0.01 | 0.03 | 0.03 | 90 | 1013.9 |
| 20260506152556 | 55 | 80 | 0.0 | 3.0 | 0.01 | 0.03 | 0.03 | 91 | 1013.8 |
| 20260506152054 | 54 | 0 | 0.0 | 3.0 | 0.02 | 0.03 | 0.03 | 90 | 1013.5 |
| 20260506151554 | 54 | 313 | 0.0 | 4.0 | 0.03 | 0.03 | 0.03 | 91 | 1013.4 |
| 20260506151056 | 54 | 0 | 0.0 | 4.0 | 0.03 | 0.03 | 0.03 | 91 | 1013.2 |
| 20260506150556 | 53 | 31 | 0.0 | 3.0 | 0.03 | 0.03 | 0.03 | 90 | 1014.3 |
| 20260506150101 | 53 | 0 | 0.0 | 3.0 | 0.03 | 0.03 | 0.03 | 90 | 1014.3 |
| 20260506145600 | 52 | 0 | 0.0 | 3.0 | 0.03 | 0.03 | 0.03 | 90 | 1015.0 |
| 20260506145055 | 52 | 40 | 0.0 | 3.0 | 0.03 | 0.03 | 0.03 | 89 | 1015.4 |
| 20260506144555 | 53 | 0 | 0.0 | 2.0 | 0.03 | 0.03 | 0.03 | 89 | 1015.5 |
| 20260506144055 | 52 | 0 | 0.0 | 3.0 | 0.03 | 0.03 | 0.03 | 89 | 1015.3 |
| 20260506143556 | 52 | 167 | 0.0 | 3.0 | 0.02 | 0.02 | 0.02 | 88 | 1014.9 |
| 20260506143057 | 53 | 0 | 0.0 | 3.0 | 0.02 | 0.02 | 0.02 | 88 | 1014.4 |
| 20260506142554 | 53 | 333 | 0.0 | 3.0 | 0.02 | 0.02 | 0.02 | 87 | 1014.4 |
| 20260506142054 | 53 | 0 | 0.0 | 3.0 | 0.01 | 0.01 | 0.01 | 86 | 1014.9 |
| 20260506141556 | 54 | 0 | 0.0 | 2.0 | 0.00 | 0.00 | 0.00 | 85 | 1016.1 |
| 20260506141054 | 54 | 78 | 0.0 | 2.0 | 0.00 | 0.00 | 0.00 | 84 | 1016.3 |
| 20260506140559 | 54 | 0 | 0.0 | 2.0 | 0.00 | 0.00 | 0.00 | 84 | 1016.7 |
| 20260506140054 | 54 | 17 | 0.0 | 4.0 | 0.00 | 0.00 | 0.00 | 84 | 1014.9 |
| 20260506135557 | 54 | 0 | 0.0 | 5.0 | 0.00 | 0.00 | 0.00 | 84 | 1013.8 |
| 20260506135107 | 54 | 0 | 0.0 | 5.0 | 0.00 | 0.00 | 0.00 | 83 | 1012.9 |
| 20260506134616 | 54 | 227 | 1.0 | 3.0 | 0.00 | 0.00 | 0.00 | 83 | 1013.4 |
| 20260506134100 | 54 | 53 | 0.0 | 3.0 | 0.00 | 0.00 | 0.00 | 83 | 1014.0 |
| 20260506133556 | 54 | 87 | 0.0 | 3.0 | 0.00 | 0.00 | 0.00 | 82 | 1014.3 |
| 20260506133056 | 54 | 0 | 0.0 | 3.0 | 0.00 | 0.00 | 0.00 | 82 | 1014.2 |
| 20260506132555 | 55 | 0 | 0.0 | 3.0 | 0.00 | 0.00 | 0.00 | 82 | 1014.0 |
| 20260506132055 | 55 | 88 | 0.0 | 3.0 | 0.00 | 0.00 | 0.00 | 82 | 1014.0 |
| 20260506131609 | 55 | 0 | 0.0 | 3.0 | 0.00 | 0.00 | 0.00 | 82 | 1013.9 |
| 20260506131054 | 55 | 0 | 0.0 | 2.0 | 0.00 | 0.00 | 0.00 | 82 | 1013.6 |
| 20260506130555 | 55 | 77 | 0.0 | 2.0 | 0.00 | 0.00 | 0.00 | 81 | 1013.6 |
| 20260506130057 | 55 | 36 | 0.0 | 2.0 | 0.00 | 0.00 | 0.00 | 81 | 1013.5 |
| 20260506125554 | 56 | 302 | 0.0 | 3.0 | 0.00 | 0.00 | 0.00 | 81 | 1013.1 |
| 20260506125055 | 56 | 0 | 0.0 | 3.0 | 0.00 | 0.00 | 0.00 | 82 | 1013.1 |
| 20260506124555 | 56 | 0 | 0.0 | 3.0 | 0.00 | 0.00 | 0.00 | 81 | 1013.0 |
| 20260506124057 | 56 | 54 | 0.0 | 3.0 | 0.00 | 0.00 | 0.00 | 81 | 1012.7 |
| 20260506123556 | 56 | 23 | 0.0 | 2.0 | 0.00 | 0.00 | 0.00 | 81 | 1012.5 |
| 20260506123055 | 56 | 0 | 0.0 | 3.0 | 0.00 | 0.00 | 0.00 | 81 | 1012.8 |
| 20260506122556 | 57 | 144 | 0.0 | 3.0 | 0.00 | 0.00 | 0.00 | 81 | 1012.7 |
| 20260506122055 | 57 | 57 | 0.0 | 2.0 | 0.00 | 0.00 | 0.00 | 81 | 1012.5 |
| 20260506121606 | 57 | 0 | 0.0 | 3.0 | 0.00 | 0.00 | 0.00 | 81 | 1012.5 |
| 20260506121056 | 57 | 58 | 0.0 | 3.0 | 0.00 | 0.00 | 0.00 | 81 | 1012.3 |
| 20260506120556 | 57 | 27 | 0.0 | 3.0 | 0.00 | 0.00 | 0.00 | 80 | 1012.4 |
| 20260506120059 | 58 | 143 | 0.0 | 3.0 | 0.00 | 0.00 | 0.00 | 80 | 1012.1 |
| 20260506115554 | 58 | 0 | 0.0 | 2.0 | 0.00 | 0.00 | 0.00 | 80 | 1012.0 |
| 20260506115054 | 58 | 0 | 0.0 | 2.0 | 0.00 | 0.00 | 0.00 | 80 | 1012.3 |
| 20260506114556 | 58 | 0 | 0.0 | 2.0 | 0.00 | 0.00 | 0.00 | 80 | 1012.2 |
| 20260506114054 | 58 | 0 | 0.0 | 2.0 | 0.00 | 0.00 | 0.00 | 80 | 1012.0 |
| 20260506113554 | 58 | 303 | 0.0 | 3.0 | 0.00 | 0.00 | 0.00 | 80 | 1012.2 |
| 20260506113054 | 58 | 0 | 0.0 | 3.0 | 0.00 | 0.00 | 0.00 | 79 | 1012.1 |
| 20260506112555 | 58 | 0 | 0.0 | 2.0 | 0.00 | 0.00 | 0.00 | 79 | 1012.1 |
| 20260506112054 | 58 | 187 | 0.0 | 4.0 | 0.00 | 0.00 | 0.00 | 79 | 1011.9 |
| 20260506111611 | 58 | 5 | 0.0 | 4.0 | 0.00 | 0.00 | 0.00 | 79 | 1011.8 |
| 20260506111057 | 58 | 0 | 0.0 | 3.0 | 0.00 | 0.00 | 0.00 | 79 | 1011.9 |
| 20260506110556 | 58 | 360 | 0.0 | 2.0 | 0.00 | 0.00 | 0.00 | 80 | 1011.7 |
| 20260506110057 | 58 | 0 | 0.0 | 4.0 | 0.00 | 0.00 | 0.00 | 80 | 1011.6 |
| 20260506105556 | 59 | 0 | 0.0 | 4.0 | 0.00 | 0.00 | 0.00 | 80 | 1011.4 |
| 20260506105056 | 59 | 21 | 0.0 | 3.0 | 0.00 | 0.00 | 0.00 | 80 | 1011.2 |
| 20260506104554 | 59 | 40 | 0.0 | 4.0 | 0.00 | 0.00 | 0.00 | 80 | 1011.4 |
| 20260506104055 | 59 | 331 | 0.0 | 4.0 | 0.00 | 0.00 | 0.00 | 80 | 1011.3 |
| 20260506103557 | 59 | 0 | 0.0 | 3.0 | 0.00 | 0.00 | 0.00 | 81 | 1011.2 |
| 20260506103104 | 59 | 0 | 0.0 | 3.0 | 0.00 | 0.00 | 0.00 | 81 | 1010.9 |
| 20260506102557 | 59 | 0 | 0.0 | 3.0 | 0.00 | 0.00 | 0.00 | 81 | 1010.7 |
| 20260506102057 | 59 | 13 | 0.0 | 2.0 | 0.00 | 0.00 | 0.00 | 81 | 1010.8 |
| 20260506101558 | 59 | 0 | 0.0 | 2.0 | 0.00 | 0.00 | 0.00 | 81 | 1010.6 |
| 20260506101057 | 59 | 0 | 0.0 | 1.0 | 0.00 | 0.00 | 0.00 | 81 | 1010.7 |
| 20260506100556 | 59 | 0 | 0.0 | 1.0 | 0.00 | 0.00 | 0.00 | 81 | 1010.7 |
| 20260506100105 | 59 | 0 | 0.0 | 2.0 | 0.00 | 0.00 | 0.00 | 81 | 1010.5 |
| 20260506095556 | 59 | 0 | 0.0 | 2.0 | 0.00 | 0.00 | 0.00 | 81 | 1010.4 |
| 20260506095056 | 59 | 0 | 0.0 | 2.0 | 0.00 | 0.00 | 0.00 | 81 | 1010.4 |
| 20260506094602 | 60 | 352 | 0.0 | 3.0 | 0.00 | 0.00 | 0.00 | 81 | 1010.2 |
| 20260506094055 | 60 | 0 | 0.0 | 3.0 | 0.00 | 0.00 | 0.00 | 82 | 1010.2 |
| 20260506093559 | 60 | 0 | 0.0 | 3.0 | 0.00 | 0.00 | 0.00 | 82 | 1010.2 |
| 20260506093100 | 60 | 0 | 0.0 | 2.0 | 0.00 | 0.00 | 0.00 | 82 | 1010.2 |
| 20260506092557 | 60 | 0 | 0.0 | 2.0 | 0.00 | 0.00 | 0.00 | 82 | 1009.9 |
| 20260506092100 | 60 | 0 | 0.0 | 1.0 | 0.00 | 0.00 | 0.00 | 82 | 1010.1 |
| 20260506091610 | 60 | 360 | 0.0 | 2.0 | 0.00 | 0.00 | 0.00 | 82 | 1010.0 |
| 20260506091056 | 60 | 61 | 0.0 | 2.0 | 0.00 | 0.00 | 0.00 | 82 | 1010.2 |
| 20260506090557 | 60 | 0 | 0.0 | 2.0 | 0.00 | 0.00 | 0.00 | 82 | 1010.1 |
| 20260506090100 | 60 | 0 | 0.0 | 2.0 | 0.00 | 0.00 | 0.00 | 82 | 1010.1 |
| 20260506085555 | 60 | 0 | 0.0 | 2.0 | 0.00 | 0.00 | 0.00 | 82 | 1010.1 |
| 20260506085055 | 61 | 0 | 0.0 | 2.0 | 0.00 | 0.00 | 0.00 | 82 | 1010.0 |
| 20260506084605 | 61 | 0 | 0.0 | 2.0 | 0.00 | 0.00 | 0.00 | 82 | 1010.0 |
| 20260506084056 | 61 | 0 | 0.0 | 2.0 | 0.00 | 0.00 | 0.00 | 81 | 1010.1 |
| 20260506083555 | 61 | 0 | 0.0 | 3.0 | 0.00 | 0.00 | 0.00 | 81 | 1010.0 |
| 20260506083114 | 61 | 0 | 0.0 | 3.0 | 0.00 | 0.00 | 0.00 | 81 | 1009.9 |
| 20260506082557 | 61 | 56 | 0.0 | 3.0 | 0.00 | 0.00 | 0.00 | 81 | 1010.0 |
| 20260506082057 | 61 | 326 | 0.0 | 2.0 | 0.00 | 0.00 | 0.00 | 81 | 1009.8 |
| 20260506081554 | 61 | 0 | 0.0 | 2.0 | 0.00 | 0.00 | 0.00 | 81 | 1009.8 |
| 20260506081056 | 61 | 0 | 0.0 | 2.0 | 0.00 | 0.00 | 0.00 | 82 | 1009.7 |
| 20260506080557 | 61 | 254 | 0.0 | 5.0 | 0.00 | 0.00 | 0.00 | 81 | 1009.9 |
| 20260506073056 | 62 | 294 | 0.0 | 2.0 | 0.00 | 0.00 | 0.00 | 81 | 1009.5 |
| 20260506072554 | 62 | 0 | 0.0 | 2.0 | 0.00 | 0.00 | 0.00 | 81 | 1009.5 |
| 20260506072054 | 62 | 0 | 0.0 | 2.0 | 0.00 | 0.00 | 0.00 | 81 | 1009.5 |
| 20260506071600 | 62 | 0 | 0.0 | 2.0 | 0.00 | 0.00 | 0.00 | 81 | 1009.5 |
| 20260506071054 | 62 | 0 | 0.0 | 2.0 | 0.00 | 0.00 | 0.00 | 81 | 1009.3 |
| 20260506070554 | 62 | 0 | 0.0 | 1.0 | 0.00 | 0.00 | 0.00 | 81 | 1009.5 |